TJS-19

Last updated on Sun Jun 21 2026 00:03:09 GMT+0000 (Coordinated Universal Time)

1 63924U 25097A 26171.49180730 -.00000281 00000+0 00000+0 0 9996 2 63924 3.2800 317.5119 0002894 246.8383 22.5951 1.00275639 4172
UTC large
Height (km)
Speed (km/s)
/
Latitude / Longitude
Inclination (degrees)
Orbital Period (minutes)
Azimuth
Elevation
Range (km)
Doppler Factor

Next 0 passes for location: London (51.5072 / 0.1276)

No passes found over London.
TJS-19